Location: Betz
(49.1556°N, 2.9558°E)
Time: 13:00:52
(UTC+00:00)

Cosmos 1805 - Pass Details

Date: 18 September 2019
Orbit: 525 x 532 km, 82.5° (Epoch: 20 October)

Event Time Altitude Azimuth Distance (km) Brightness Sun altitude
Exits shadow 19:53:58 32° 55° (NE) 922 4.2 -19.4°
Drops below altitude 10° 19:56:35 10° 24° (NNE) 1,784 6.0 -19.8°
Sets 19:58:49 0° 17° (NNE) 2,678 7.0 -20.1°
